ARIANE 5 R/B, 26721

Orbit data source: Space-Track

ARIANE 5 R/B, 26721 is space debris in HEO originally from a launch on Thu, 08 Mar 2001 UTC launched from the French Guiana (FRGUI). Debris objects in space refer to the collection of defunct objects orbiting the Earth. Examples of debris include non-operational satellites, rocket bodies, and fragments generated from explosions, collisions, or faulty payload assembly.

Loading next visibility...
Identifier
26721, 2001-011C
Orbit
HEO
Country
Flag of FRFR
Related business
Manufacturer
Astrium
Mission
Spacecraft
Bus & Motor
EPS, AESTUS
Mass
1,190 kg wet, 1,190 kg dry
Launch date (UTC)
2001-03-08 (25 years ago)
Launch vehicle
Unknown
Launch site
French Guiana (FRGUI)
Object type
Payload
Rocket body
Debris
Shape & HBR
Cone + Cyl, 2.7 m
Radar Cross Section
25.858 m², Large (>1 m²)

Expand to show TLE details & history
Last TLE update: 12 hours ago

TLE from 12 hours ago
0 ARIANE 5 R/B
1 26721U 01011C   26063.10028076  .00000043  00000-0  50432-2 0  9995
2 26721   2.0134 329.9822 7054914 122.9582 175.2310  2.24565915205054
Epoch: 2026-03-04T02:24Z
TLE epoch observation values (Epoch: 2026-03-04T02:24:24.257Z)
Latitude
-1.70511°
Longitude
73.85442°
Altitude
35,584.067 km
Speed
1.678 km/s
True Right ascension
18h 07m 18s
True Declination
-1° 42' 12"
Sunlit
Object was in daylight at epoch
Visualization orbit readout
Latitude
Unknown
Longitude
Unknown
Altitude
Unknown
Speed
Unknown
Apparent Right ascension
Unknown
Apparent Declination
Unknown
Sunlit
N/A
Visualization observer readout
Local Sidereal Time
18:10:13
Azimuth
Unknown
Elevation
Unknown
Doppler factor
Unknown
Orbital elements
Apogee altitude
35,640.711 km
Perigee altitude
877.785 km
Semi-major axis
24,637.385 km
Eccentricity
0.70549
Inclination
2.0134°
RAAN
329.9822°
Arg. of periapsis
122.9582°
True anomaly
178.83763°
Mean anomaly
175.231°
Eccentric anomaly
177.20328°
Mean motion
0.56124 °/min
Orbital period
641.43 mins
BSTAR
0.0050432
Loading maneuver chart data...
Computing Atmospheric mass density...
Loading historical data...
Loading historical data...
Loading historical data...
Loading historical data...
Loading historical data...
Loading historical data...
Loading historical data...
Other satellites on launch #11 in the year 2001 (2001-03-08 UTC)

Documentation

Showing up to 5 results
|